Flag for U.S.A. Weather past 2 weeks in Kalispell, Montana, U.S.A.

Now
78 °F

Sunny.


Feels Like: 77 °F
Forecast: 42 / 78 °F
Wind: 5 mph from North

Location: Kalispell - Glacier Park International

Current Time: May 22, 2015 at 4:46:57 PM

Latest Report: May 22, 2015 at 3:55 PM


Visibility: 10 mi

Pressure: 29.81 "Hg

Humidity: 16%

Dew point: 29 °F

Location of KalispellLocation

Historic Weather in Kalispell — Graph

°F

Kalispell temperature yesterday

Maximum temperature yesterday: 78 °F (at 3:55 PM)
Minimum temperature yesterday: 39 °F (at 5:55 AM)
Average temperature yesterday: 61 °F

Past Weeks' High & Low Weather Summary

 TemperatureHumidityPressure
High78 °F (May 21, 3:55 PM)89% (May 13, 11:55 AM)30.29 "Hg (May 13, 11:55 AM)
Low29 °F (May 10, 5:55 AM)16% (May 10, 2:55 PM)29.64 "Hg (May 15, 4:55 PM)
Average54 °F48%29.99 "Hg
* Reported May 7 3:55 PM — May 22 3:55 PM, Kalispell, Weather by CustomWeather, © 2015

Note: Actual official high and low records may vary slightly from our data, if they occured in-between our weather recording intervals... More about our weather records

Advertising

Kalispell weather history for previous 24 hours

 ConditionsComfort  
Time TempWeatherWind HumidityBarometerVisibility
3:55 PM
Fri, May 22
78 °FSunny.5 mph16%29.81 "Hg10 mi
2:55 PM78 °FSunny.10 mph19%29.83 "Hg10 mi
1:55 PM77 °FSunny.N/A16%29.84 "Hg10 mi
12:55 PM75 °FSunny.6 mph22%29.85 "Hg10 mi
11:55 AM72 °FSunny.No wind30%29.87 "Hg10 mi
10:55 AM69 °FSunny.6 mph32%29.88 "Hg10 mi
9:55 AM64 °FSunny.8 mph37%29.88 "Hg10 mi
8:55 AM61 °FSunny.10 mph39%29.89 "Hg10 mi
7:55 AM55 °FSunny.8 mph53%29.88 "Hg10 mi
6:55 AM47 °FSunny.5 mph71%29.90 "Hg10 mi
5:55 AM42 °FClear.6 mph79%29.89 "Hg10 mi
4:55 AM42 °FClear.5 mph79%29.89 "Hg10 mi
3:55 AM42 °FClear.No wind79%29.89 "Hg10 mi
2:55 AM45 °FClear.No wind71%29.89 "Hg10 mi
1:55 AM47 °FClear.5 mph64%29.88 "Hg10 mi
12:55 AM49 °FClear.No wind59%29.88 "Hg10 mi
11:55 PM
Thu, May 21
51 °FClear.5 mph52%29.87 "Hg10 mi
10:55 PM59 °FPassing clouds.5 mph39%29.85 "Hg10 mi
9:55 PM65 °FSunny.7 mph29%29.82 "Hg10 mi
8:55 PM69 °FSunny.9 mph25%29.80 "Hg10 mi
7:55 PM75 °FSunny.15 mph19%29.78 "Hg10 mi
6:55 PM78 °FSunny.No wind16%29.78 "Hg10 mi
5:55 PM77 °FSunny.5 mph17%29.80 "Hg10 mi
4:55 PM78 °FSunny.8 mph16%29.82 "Hg10 mi
Weather by CustomWeather, © 2015

See weather overviewHow to use our weather pages